DW7214 Weather Reports


time (UTC)temp
C
wind
direction
speed
KPH
gust
KPH
rain 1hr
cm
rain 24hr
cm
rain mn
cm
humidity
%
barometer
mb
20260506134520 10 86 0.0 3.2 0.00 0.00 0.00 92 1020.4
20260506133025 10 119 0.0 3.2 0.00 0.00 0.00 91 1020.4
20260506131524 11 119 0.0 0.0 0.00 0.00 0.00 90 1020.3
20260506130012 11 119 0.0 3.2 0.00 0.00 0.00 90 1020.2
20260506124516 11 119 0.0 3.2 0.00 0.00 0.00 90 1020.2
20260506123020 11 64 0.0 3.2 0.00 0.00 0.00 89 1020.0
20260506121523 12 64 1.6 3.2 0.00 0.00 0.00 89 1020.0
20260506120027 12 70 0.0 3.2 0.00 0.00 0.00 89 1020.1
20260506114517 11 59 0.0 3.2 0.00 0.00 0.00 89 1019.9
20260506113018 11 138 0.0 3.2 0.00 0.00 0.00 89 1019.7
20260506111523 11 138 0.0 3.2 0.00 0.00 0.00 89 1019.6
20260506110030 11 90 0.0 3.2 0.00 0.00 0.00 89 1019.4
20260506104527 11 122 1.6 3.2 0.00 0.00 0.00 89 1019.2
20260506103018 11 117 0.0 3.2 0.00 0.00 0.00 89 1019.0
20260506101520 11 194 1.6 3.2 0.00 0.00 0.00 89 1018.9
20260506100023 11 88 0.0 4.8 0.00 0.00 0.00 89 1018.8
20260506094526 11 74 0.0 3.2 0.00 0.00 0.00 89 1018.8
20260506093030 11 121 1.6 8.0 0.00 0.00 0.00 88 1018.6
20260506091523 11 88 1.6 9.7 0.00 0.00 0.00 88 1018.6
20260506090023 11 110 1.6 4.8 0.00 0.00 0.00 88 1018.6
20260506084526 12 120 1.6 4.8 0.00 0.00 0.00 88 1018.5
20260506083025 12 118 0.0 8.0 0.00 0.00 0.00 87 1018.5
20260506081525 12 134 1.6 4.8 0.00 0.00 0.00 87 1018.5
20260506073012 12 133 1.6 4.8 0.00 0.00 0.00 87 1018.2
20260506071517 12 161 1.6 4.8 0.00 0.00 0.00 87 1018.0
20260506061518 12 115 1.6 6.4 0.00 0.00 0.00 84 1017.8
20260506044530 15 46 1.6 3.2 0.00 0.00 0.00 80 1017.4
20260506043023 15 246 0.0 3.2 0.00 0.00 0.00 83 1017.2
20260506041512 15 242 0.0 3.2 0.00 0.00 0.00 83 1017.1
20260506040042 15 241 0.0 3.2 0.00 0.00 0.00 83 1016.7
20260506034523 15 229 1.6 3.2 0.00 0.00 0.00 82 1016.5
20260506033022 16 208 0.0 3.2 0.00 0.00 0.00 80 1016.4
20260506031540 16 154 0.0 3.2 0.00 0.00 0.00 77 1016.3
20260506030012 17 119 0.0 3.2 0.00 0.00 0.00 74 1016.2
20260506024520 18 119 0.0 3.2 0.00 0.00 0.00 73 1016.0
20260506023021 18 56 0.0 3.2 0.00 0.00 0.00 70 1015.8
20260506021524 18 74 0.0 6.4 0.00 0.00 0.00 69 1015.8
20260506020010 18 50 0.0 4.8 0.00 0.00 0.00 69 1016.0
20260506014515 18 268 0.0 3.2 0.00 0.00 0.00 69 1015.8
20260506013021 18 340 1.6 6.4 0.00 0.00 0.00 68 1016.0
20260506011523 18 302 3.2 6.4 0.00 0.00 0.00 68 1016.0
20260506010012 18 295 1.6 6.4 0.00 0.00 0.00 69 1016.0
20260506004511 18 303 1.6 6.4 0.00 0.00 0.00 68 1016.1
20260506003008 18 337 4.8 9.7 0.00 0.00 0.00 67 1016.0
20260506001504 18 303 4.8 9.7 0.00 0.00 0.00 68 1016.1
20260506000004 18 311 3.2 11.3 0.00 0.00 0.00 69 1016.2
20260505234506 18 17 8.0 16.1 0.00 0.00 0.00 69 1016.3
20260505233004 18 351 4.8 11.3 0.00 0.00 0.00 70 1016.5
20260505231504 18 360 1.6 6.4 0.00 0.00 0.00 69 1016.5
20260505230006 18 36 1.6 11.3 0.00 0.00 0.00 67 1016.5
20260505224506 18 240 1.6 9.7 0.00 0.00 0.00 68 1016.7
20260505223005 18 327 3.2 8.0 0.00 0.00 0.00 67 1016.7
20260505221509 18 314 3.2 6.4 0.00 0.00 0.00 68 1016.8
20260505220007 18 352 1.6 6.4 0.00 0.00 0.00 67 1017.0
20260505214506 17 49 1.6 6.4 0.00 0.00 0.00 70 1017.1
20260505213008 17 57 1.6 6.4 0.00 0.00 0.00 69 1017.2
20260505211508 17 351 1.6 6.4 0.00 0.00 0.00 71 1017.3
20260505210007 17 65 1.6 4.8 0.00 0.00 0.00 69 1017.3
20260505204509 17 298 3.2 6.4 0.00 0.00 0.00 69 1017.4
20260505203008 16 49 1.6 6.4 0.00 0.00 0.00 70 1017.5
20260505201507 16 184 1.6 3.2 0.00 0.00 0.00 70 1017.6
20260505200015 16 329 1.6 3.2 0.00 0.00 0.00 71 1017.6
20260505194510 15 207 1.6 4.8 0.00 0.00 0.00 75 1017.7
20260505193010 15 63 1.6 4.8 0.00 0.00 0.00 74 1017.8
20260505191511 15 5 1.6 4.8 0.00 0.00 0.00 75 1017.8
20260505190012 14 234 1.6 4.8 0.00 0.00 0.00 76 1017.8
20260505184510 14 5 3.2 6.4 0.00 0.00 0.00 77 1017.7
20260505183019 14 287 1.6 6.4 0.00 0.00 0.00 77 1017.5
20260505181514 14 242 1.6 6.4 0.00 0.00 0.00 76 1017.5
20260505180012 14 344 1.6 4.8 0.00 0.00 0.00 76 1017.4
20260505174512 14 234 1.6 3.2 0.00 0.00 0.00 78 1017.4
20260505173014 13 340 0.0 3.2 0.00 0.00 0.00 78 1017.4
20260505171518 13 205 1.6 6.4 0.00 0.00 0.00 78 1017.3
20260505170017 13 232 0.0 3.2 0.00 0.00 0.00 79 1017.3
20260505164513 13 235 1.6 4.8 0.00 0.00 0.00 80 1017.1
20260505163014 13 221 3.2 4.8 0.00 0.00 0.00 79 1017.0
20260505161516 12 217 0.0 3.2 0.00 0.00 0.00 87 1017.1
20260505153006 11 117 1.6 3.2 0.00 0.00 0.00 89 1017.0
20260505151509 11 131 0.0 1.6 0.00 0.00 0.00 91 1017.0